H1 CPF 2 NER 2024 7 4 9 186 01 glonass146 H2 2216101 9146 54377 2024 7 4 0 0 0 2024 7 7 23 45 0 900 1 1 0 0 0 1 H9 10 0 60495 0.00000 0 13655567.543 -19105719.728 10021952.445 10 0 60495 900.00000 0 13002605.738 -17853841.695 12811144.461 10 0 60495 1800.00000 0 12341370.364 -16246165.319 15352213.553 10 0 60495 2700.00000 0 11726851.741 -14309484.861 17595951.006 10 0 60495 3600.00000 0 11209021.542 -12082441.137 19498889.835 10 0 60495 4500.00000 0 10830613.687 -9614139.168 21024139.395 10 0 60495 5400.00000 0 10625223.681 -6962339.392 22142095.246 10 0 60495 6300.00000 0 10615805.887 -4191295.974 22831011.223 10 0 60495 7200.00000 0 10813631.775 -1369330.265 23077423.062 10 0 60495 8100.00000 0 11217753.266 1433761.779 22876415.503 10 0 60495 9000.00000 0 11814994.453 4149362.374 22231727.397 10 0 60495 9900.00000 0 12580473.242 6712636.376 21155692.096 10 0 60495 10800.00000 0 13478632.465 9064980.554 19669013.245 10 0 60495 11700.00000 0 14464738.736 11156216.797 17800379.012 10 0 60495 12600.00000 0 15486787.611 12946438.462 15585920.761 10 0 60495 13500.00000 0 16487736.227 14407433.048 13068525.225 10 0 60495 14400.00000 0 17407970.364 15523621.672 10297012.174 10 0 60495 15300.00000 0 18187902.337 16292475.680 7325192.559 10 0 60495 16200.00000 0 18770589.994 16724392.618 4210824.810 10 0 60495 17100.00000 0 19104265.510 16842036.565 1014489.391 10 0 60495 18000.00000 0 19144665.905 16679170.594 -2201596.095 10 0 60495 18900.00000 0 18857065.225 16279030.943 -5374797.434 10 0 60495 19800.00000 0 18217920.667 15692312.253 -8443295.109 10 0 60495 20700.00000 0 17216061.296 14974850.009 -11347300.998 10 0 60495 21600.00000 0 15853367.458 14185099.504 -14030235.389 10 0 60495 22500.00000 0 14144910.788 13381519.324 -16439840.078 10 0 60495 23400.00000 0 12118547.881 12619971.461 -18529204.719 10 0 60495 24300.00000 0 9813983.982 11951249.197 -20257685.686 10 0 60495 25200.00000 0 7281345.685 11418838.202 -21591699.146 10 0 60495 26100.00000 0 4579322.390 11057005.984 -22505372.862 10 0 60495 27000.00000 0 1772954.396 10889300.507 -22981044.374 10 0 60495 27900.00000 0 -1068839.847 10927521.037 -23009596.474 10 0 60495 28800.00000 0 -3875894.122 11171204.037 -22590624.242 10 0 60495 29700.00000 0 -6579472.947 11607644.887 -21732431.297 10 0 60495 30600.00000 0 -9114887.172 12212453.506 -20451856.237 10 0 60495 31500.00000 0 -11423938.467 12950619.431 -18773933.483 10 0 60495 32400.00000 0 -13457092.122 13778040.483 -16731395.884 10 0 60495 33300.00000 0 -15175289.122 14643449.813 -14364029.331 10 0 60495 34200.00000 0 -16551323.697 15490659.506 -11717892.415 10 0 60495 35100.00000 0 -17570730.868 16261025.807 -8844416.650 10 0 60495 36000.00000 0 -18232148.987 16896031.940 -5799404.955 10 0 60495 36900.00000 0 -18547144.166 17339879.692 -2641948.012 10 0 60495 37800.00000 0 -18539505.931 17541980.804 566720.421 10 0 60495 38700.00000 0 -18244045.341 17459243.530 3764407.120 10 0 60495 39600.00000 0 -17704947.419 17058058.423 6889159.129 10 0 60495 40500.00000 0 -16973748.089 16315900.112 9880456.687 10 0 60495 41400.00000 0 -16107021.187 15222477.896 12680376.782 10 0 60495 42300.00000 0 -15163872.884 13780386.752 15234705.382 10 0 60495 43200.00000 0 -14203348.563 12005231.116 17493977.665 10 0 60495 44100.00000 0 -13281860.512 9925215.474 19414427.000 10 0 60495 45000.00000 0 -12450743.752 7580217.790 20958825.241 10 0 60495 45900.00000 0 -11754041.753 5020382.911 22097198.942 10 0 60495 46800.00000 0 -11226614.274 2304292.776 22807408.378 10 0 60495 47700.00000 0 -10892646.215 -503212.467 23075578.563 10 0 60495 48600.00000 0 -10764619.837 -3333473.922 22896374.089 10 0 60495 49500.00000 0 -10842793.710 -6116614.759 22273112.171 10 0 60495 50400.00000 0 -11115210.865 -8784196.160 21217711.049 10 0 60495 51300.00000 0 -11558236.755 -11271819.632 19750473.736 10 0 60495 52200.00000 0 -12137605.640 -13521568.672 17899709.977 10 0 60495 53100.00000 0 -12809932.670 -15484188.825 15701202.343 10 0 60495 54000.00000 0 -13524629.208 -17120915.592 13197525.296 10 0 60495 54900.00000 0 -14226141.654 -18404873.737 10437229.154 10 0 60495 55800.00000 0 -14856419.830 -19321989.125 7473903.725 10 0 60495 56700.00000 0 -15357510.719 -19871374.351 4365139.201 10 0 60495 57600.00000 0 -15674167.448 -20065171.556 1171404.276 10 0 60495 58500.00000 0 -15756362.092 -19927858.702 -2045136.322 10 0 60495 59400.00000 0 -15561594.530 -19495048.585 -5221841.143 10 0 60495 60300.00000 0 -15056897.899 -18811831.571 -8296823.336 10 0 60495 61200.00000 0 -14220453.922 -17930732.755 -11210168.621 10 0 60495 62100.00000 0 -13042747.940 -16909370.875 -13905114.812 10 0 60495 63000.00000 0 -11527213.236 -15807919.117 -16329168.572 10 0 60495 63900.00000 0 -9690336.060 -14686476.409 -18435136.512 10 0 60495 64800.00000 0 -7561215.920 -13602461.432 -20182049.763 10 0 60495 65700.00000 0 -5180598.921 -12608140.328 -21535963.604 10 0 60495 66600.00000 0 -2599424.383 -11748393.024 -22470616.500 10 0 60495 67500.00000 0 123054.545 -11058812.552 -22967936.063 10 0 60495 68400.00000 0 2921497.692 -10564217.143 -23018382.674 10 0 60495 69300.00000 0 5726959.095 -10277637.113 -22621124.854 10 0 60495 70200.00000 0 8469519.285 -10199818.110 -21784043.886 10 0 60495 71100.00000 0 11080959.234 -10319260.376 -20523568.474 10 0 60495 72000.00000 0 13497365.121 -10612790.930 -18864343.520 10 0 60495 72900.00000 0 15661556.286 -11046643.199 -16838740.192 10 0 60495 73800.00000 0 17525236.419 -11577997.303 -14486217.427 10 0 60495 74700.00000 0 19050779.709 -12156915.020 -11852547.783 10 0 60495 75600.00000 0 20212579.149 -12728587.003 -8988923.037 10 0 60495 76500.00000 0 20997902.516 -13235796.964 -5950957.157 10 0 60495 77400.00000 0 21407222.135 -13621498.582 -2797606.174 10 0 60495 78300.00000 0 21454006.467 -13831396.420 409974.019 10 0 60495 79200.00000 0 21163983.961 -13816422.142 3609609.886 10 0 60495 80100.00000 0 20573911.443 -13535001.883 6739309.669 10 0 60495 81000.00000 0 19729899.810 -12955019.509 9738457.149 10 0 60495 81900.00000 0 18685367.978 -12055393.293 12548977.097 10 0 60495 82800.00000 0 17498711.190 -10827199.716 15116450.476 10 0 60495 83700.00000 0 16230781.418 -9274296.898 17391158.622 10 0 60495 84600.00000 0 14942284.979 -7413420.884 19329037.088 10 0 60495 85500.00000 0 13691205.783 -5273749.703 20892521.605 10 0 60496 0.00000 0 12530361.336 -2895952.227 22051270.587 10 0 60496 900.00000 0 11505192.348 -330758.369 22782751.477 10 0 60496 1800.00000 0 10651879.245 2362888.624 23072678.560 10 0 60496 2700.00000 0 9995861.805 5120027.330 22915296.011 10 0 60496 3600.00000 0 9550825.207 7872128.618 22313498.779 10 0 60496 4500.00000 0 9318194.474 10549702.819 21278789.037 10 0 60496 5400.00000 0 9287159.035 13084956.836 19831067.908 10 0 60496 6300.00000 0 9435227.146 15414392.076 17998265.218 10 0 60496 7200.00000 0 9729287.755 17481235.917 15815813.011 10 0 60496 8100.00000 0 10127136.113 19237605.817 13325971.570 10 0 60496 9000.00000 0 10579399.651 20646315.663 10577019.663 10 0 60496 9900.00000 0 11031783.414 21682248.407 7622323.719 10 0 60496 10800.00000 0 11427540.317 22333236.876 4519303.320 10 0 60496 11700.00000 0 11710061.409 22600415.092 1328312.920 10 0 60496 12600.00000 0 11825475.673 22498024.734 -1888538.146 10 0 60496 13500.00000 0 11725147.947 22052684.537 -5068603.690 10 0 60496 14400.00000 0 11367967.543 21302153.405 -8149931.948 10 0 60496 15300.00000 0 10722328.775 20293639.750 -11072484.771 10 0 60496 16200.00000 0 9767717.675 19081729.130 -13779319.587 10 0 60496 17100.00000 0 8495835.963 17726018.616 -16217709.816 10 0 60496 18000.00000 0 6911213.239 16288558.899 -18340180.702 10 0 60496 18900.00000 0 5031280.257 14831213.130 -20105439.619 10 0 60496 19800.00000 0 2885899.261 13413044.866 -21479182.268 10 0 60496 20700.00000 0 516370.505 12087845.810 -22434758.965 10 0 60496 21600.00000 0 -2026043.732 10901907.736 -22953688.364 10 0 60496 22500.00000 0 -4682015.987 9892132.090 -23026009.198 10 0 60496 23400.00000 0 -7386392.041 9084556.136 -22650463.939 10 0 60496 24300.00000 0 -10070677.563 8493356.451 -21834511.728 10 0 60496 25200.00000 0 -12665669.422 8120370.237 -20594171.221 10 0 60496 26100.00000 0 -15104122.309 7955152.866 -18953697.264 10 0 60496 27000.00000 0 -17323340.156 7975567.506 -16945098.454 10 0 60496 27900.00000 0 -19267585.192 8148880.260 -14607505.575 10 0 60496 28800.00000 0 -20890205.287 8433313.155 -11986403.689 10 0 60496 29700.00000 0 -22155392.187 8779988.238 -9132743.195 10 0 60496 30600.00000 0 -23039498.744 9135179.782 -6101947.326 10 0 60496 31500.00000 0 -23531861.699 9442778.938 -2952835.570 10 0 60496 32400.00000 0 -23635097.242 9646866.432 253516.042 10 0 60496 33300.00000 0 -23364858.547 9694284.661 3454955.751 10 0 60496 34200.00000 0 -22749066.762 9537100.734 6589455.226 10 0 60496 35100.00000 0 -21826648.835 9134856.783 9596304.136 10 0 60496 36000.00000 0 -20645835.760 8456512.908 12417277.500 10 0 60496 36900.00000 0 -19262092.965 7482001.034 14997753.827 10 0 60496 37800.00000 0 -17735769.490 6203324.196 17287763.186 10 0 60496 38700.00000 0 -16129563.953 4625154.620 19242945.843 10 0 60496 39600.00000 0 -14505912.670 2764904.689 20825403.817 10 0 60496 40500.00000 0 -12924408.177 652266.535 22004429.759 10 0 60496 41400.00000 0 -11439355.041 -1671762.206 22757099.817 10 0 60496 42300.00000 0 -10097564.087 -4156327.792 23068719.436 10 0 60496 43200.00000 0 -8936476.298 -6742586.800 22933113.678 10 0 60496 44100.00000 0 -7982694.179 -9365914.177 22352756.164 10 0 60496 45000.00000 0 -7250981.660 -11958363.254 21338733.561 10 0 60496 45900.00000 0 -6743774.401 -14451277.337 19910545.267 10 0 60496 46800.00000 0 -6451221.307 -16777945.827 18095740.951 10 0 60496 47700.00000 0 -6351756.066 -18876195.271 15929401.494 10 0 60496 48600.00000 0 -6413175.340 -20690807.938 13453471.962 10 0 60496 49500.00000 0 -6594178.824 -22175666.986 10715958.174 10 0 60496 50400.00000 0 -6846306.732 -23295538.073 7770001.428 10 0 60496 51300.00000 0 -7116193.009 -24027412.105 4672848.639 10 0 60496 52200.00000 0 -7348038.759 -24361351.859 1484737.686 10 0 60496 53100.00000 0 -7486200.484 -24300806.014 -1732280.088 10 0 60496 54000.00000 0 -7477782.347 -23862376.653 -4915556.594 10 0 60496 54900.00000 0 -7275121.086 -23075049.577 -8003078.213 10 0 60496 55800.00000 0 -6838056.527 -21978919.828 -10934686.157 10 0 60496 56700.00000 0 -6135889.589 -20623466.472 -13653260.845 10 0 60496 57600.00000 0 -5148943.072 -19065450.061 -16105845.846 10 0 60496 58500.00000 0 -3869657.503 -17366522.334 -18244688.367 10 0 60496 59400.00000 0 -2303174.351 -15590649.863 -20028175.156 10 0 60496 60300.00000 0 -467380.854 -13801461.061 -21421645.133 10 0 60496 61200.00000 0 1607586.184 -12059628.903 -22398062.845 10 0 60496 62100.00000 0 3880357.335 -10420399.742 -22938539.875 10 0 60496 63000.00000 0 6299825.808 -8931371.911 -23032694.655 10 0 60496 63900.00000 0 8807058.584 -7630616.827 -22678844.414 10 0 60496 64800.00000 0 11337543.507 -6545220.360 -21884026.451 10 0 60496 65700.00000 0 13823678.616 -5690304.199 -20663849.174 10 0 60496 66600.00000 0 16197399.959 -5068566.487 -19042176.710 10 0 60496 67500.00000 0 18392838.617 -4670359.015 -17050653.956 10 0 60496 68400.00000 0 20348896.677 -4474295.681 -14728081.938 10 0 60496 69300.00000 0 22011635.429 -4448364.648 -12119656.158 10 0 60496 70200.00000 0 23336377.111 -4551495.643 -9276083.091 10 0 60496 71100.00000 0 24289433.617 -4735514.872 -6252592.276 10 0 60496 72000.00000 0 24849391.203 -4947404.015 -3107863.345 10 0 60496 72900.00000 0 25007898.879 -5131767.237 97111.090 10 0 60496 73800.00000 0 24769928.801 -5233401.691 3300204.742 10 0 60496 74700.00000 0 24153499.021 -5199862.888 6439356.366 10 0 60496 75600.00000 0 23188871.199 -4983916.771 9453765.033 10 0 60496 76500.00000 0 21917257.581 -4545775.270 12285059.272 10 0 60496 77400.00000 0 20389091.778 -3855021.282 14878418.052 10 0 60496 78300.00000 0 18661935.650 -2892142.056 17183622.706 10 0 60496 79200.00000 0 16798109.470 -1649606.288 19156020.327 10 0 60496 80100.00000 0 14862143.656 -132439.110 20757380.917 10 0 60496 81000.00000 0 12918157.532 1641730.170 21956632.562 10 0 60496 81900.00000 0 11027273.317 3643150.986 22730461.186 10 0 60496 82800.00000 0 9245172.067 5830946.761 23063763.730 10 0 60496 83700.00000 0 7619892.365 8154583.071 22949946.177 10 0 60496 84600.00000 0 6189962.634 10555749.807 22391060.451 10 0 60496 85500.00000 0 4982944.343 12970581.196 21397776.929 10 0 60497 0.00000 0 4014446.663 15332123.108 19989192.271 10 0 60497 900.00000 0 3287653.230 17572947.893 18192474.223 10 0 60497 1800.00000 0 2793382.244 19627805.925 16042350.791 10 0 60497 2700.00000 0 2510676.082 21436208.138 13580449.742 10 0 60497 3600.00000 0 2407897.350 22944828.763 10854501.639 10 0 60497 4500.00000 0 2444285.033 24109628.609 7917420.147 10 0 60497 5400.00000 0 2571905.291 24897609.001 4826276.868 10 0 60497 6300.00000 0 2737914.294 25288121.721 1641190.342 10 0 60497 7200.00000 0 2887036.735 25273678.753 -1575848.893 10 0 60497 8100.00000 0 2964154.087 24860226.699 -4762193.653 10 0 60497 9000.00000 0 2916891.503 24066873.484 -7855771.179 10 0 60497 9900.00000 0 2698092.081 22925078.324 -10796304.610 10 0 60497 10800.00000 0 2268071.795 21477339.008 -13526499.683 10 0 60497 11700.00000 0 1596557.735 19775432.078 -15993172.215 10 0 60497 12600.00000 0 664225.896 17878280.611 -18148293.192 10 0 60497 13500.00000 0 -536228.002 15849540.165 -19949930.280 10 0 60497 14400.00000 0 -1999531.112 13755005.222 -21363066.923 10 0 60497 15300.00000 0 -3707813.854 11659945.846 -22360282.935 10 0 60497 16200.00000 0 -5631129.515 9626486.798 -22922283.602 10 0 60497 17100.00000 0 -7728491.591 7711139.066 -23038267.532 10 0 60497 18000.00000 0 -9949385.453 5962586.884 -22706126.872 10 0 60497 18900.00000 0 -12235691.037 4419822.007 -21932476.854 10 0 60497 19800.00000 0 -14523936.134 3110702.019 -20732515.025 10 0 60497 20700.00000 0 -16747786.070 2050991.254 -19129713.789 10 0 60497 21600.00000 0 -18840665.924 1243922.490 -17155352.966 10 0 60497 22500.00000 0 -20738406.072 680295.516 -14847902.155 10 0 60497 23400.00000 0 -22381801.013 339106.213 -12252265.396 10 0 60497 24300.00000 0 -23718975.247 188677.582 -9418903.198 10 0 60497 25200.00000 0 -24707458.221 188243.231 -6402849.270 10 0 60497 26100.00000 0 -25315882.508 289915.112 -3262641.210 10 0 60497 27000.00000 0 -25525235.293 440951.352 -59185.997 10 0 60497 27900.00000 0 -25329611.881 586227.783 3145417.781 10 0 60497 28800.00000 0 -24736440.694 670808.451 6289078.245 10 0 60497 29700.00000 0 -23766171.211 642506.553 9310906.180 10 0 60497 30600.00000 0 -22451438.541 454327.859 12152385.957 10 0 60497 31500.00000 0 -20835739.903 66693.827 14758499.325 10 0 60497 32400.00000 0 -18971678.321 -550649.082 17078781.127 10 0 60497 33300.00000 0 -16918846.508 -1417114.238 19068287.404 10 0 60497 34200.00000 0 -14741438.542 -2540217.776 20688458.045 10 0 60497 35100.00000 0 -12505687.910 -3915024.680 21907858.218 10 0 60497 36000.00000 0 -10277237.432 -5524122.331 22702784.968 10 0 60497 36900.00000 0 -8118549.302 -7338124.140 23057727.744 10 0 60497 37800.00000 0 -6086461.769 -9316684.131 22965674.148 10 0 60497 38700.00000 0 -4229992.972 -11409982.242 22428254.777 10 0 60497 39600.00000 0 -2588482.507 -13560620.605 21455723.793 10 0 60497 40500.00000 0 -1190147.491 -15705853.861 20066774.614 10 0 60497 41400.00000 0 -51113.035 -17780062.397 18288193.063 10 0 60497 42300.00000 0 825042.425 -19717366.726 16154353.265 10 0 60497 43200.00000 0 1447207.758 -21454274.812 13706564.603 10 0 60497 44100.00000 0 1836128.836 -22932252.008 10992281.007 10 0 60497 45000.00000 0 2023292.694 -24100105.786 8064186.863 10 0 60497 45900.00000 0 2049353.081 -24916084.577 4979176.543 10 0 60497 46800.00000 0 1962164.009 -25349601.537 1797247.109 10 0 60497 47700.00000 0 1814504.897 -25382509.384 -1419674.064 10 0 60497 48600.00000 0 1661594.484 -25009871.384 -4608943.236 10 0 60497 49500.00000 0 1558500.045 -24240194.736 -7708431.229 10 0 60497 50400.00000 0 1557553.236 -23095115.599 -10657745.966 10 0 60497 51300.00000 0 1705883.834 -21608548.461 -13399421.476 10 0 60497 52200.00000 0 2043177.631 -19825335.509 -15880048.819 10 0 60497 53100.00000 0 2599755.161 -17799453.074 -18051325.701 10 0 60497 54000.00000 0 3395054.036 -15591851.104 -19871003.494 10 0 60497 54900.00000 0 4436580.279 -13268017.055 -21303712.670 10 0 60497 55800.00000 0 5719373.831 -10895367.162 -22321650.454 10 0 60497 56700.00000 0 7226011.346 -8540574.895 -22905117.538 10 0 60497 57600.00000 0 8927146.493 -6266948.684 -23042893.947 10 0 60497 58500.00000 0 10782565.120 -4131968.422 -22732447.489 10 0 60497 59400.00000 0 12742710.959 -2185083.078 -21979971.616 10 0 60497 60300.00000 0 14750617.781 -465860.271 -20800252.858 10 0 60497 61200.00000 0 16744166.929 997436.389 -19216371.297 10 0 60497 62100.00000 0 18658575.705 2188784.748 -17259240.670 10 0 60497 63000.00000 0 20429012.546 3104819.318 -14966997.714 10 0 60497 63900.00000 0 21993229.793 3754709.229 -12384253.139 10 0 60497 64800.00000 0 23294104.310 4159506.413 -9561219.205 10 0 60497 65700.00000 0 24281980.193 4350993.566 -6552731.116 10 0 60497 66600.00000 0 24916716.198 4370082.256 -3417181.428 10 0 60497 67500.00000 0 25169352.991 4264830.185 -215388.247 10 0 60497 68400.00000 0 25023331.235 4088162.271 2990580.921 10 0 60497 69300.00000 0 24475210.317 3895392.373 6138606.944 10 0 60497 70200.00000 0 23534858.297 3741650.526 9167715.607 10 0 60497 71100.00000 0 22225105.642 3679324.188 12019250.215 10 0 60497 72000.00000 0 20580877.435 3755621.233 14637998.124 10 0 60497 72900.00000 0 18647840.238 4010357.076 16973250.209 10 0 60497 73800.00000 0 16480619.638 4474058.877 18979773.640 10 0 60497 74700.00000 0 14140662.075 5166466.555 20618680.048 10 0 60497 75600.00000 0 11693828.926 6095493.834 21858173.178 10 0 60497 76500.00000 0 9207821.684 7256693.606 22674162.327 10 0 60497 77400.00000 0 6749543.919 8633251.139 23050730.205 10 0 60497 78300.00000 0 4382508.217 10196506.923 22980446.366 10 0 60497 79200.00000 0 2164394.510 11906989.150 22464519.991 10 0 60497 80100.00000 0 144860.211 13715914.751 21512788.478 10 0 60497 81000.00000 0 -1636307.684 15567098.343 20143541.152 10 0 60497 81900.00000 0 -3150622.107 17399191.320 18383180.242 10 0 60497 82800.00000 0 -4381847.700 19148159.081 16265724.298 10 0 60497 83700.00000 0 -5326435.115 20749893.962 13832162.192 10 0 60497 84600.00000 0 -5993419.537 22142855.062 11129668.831 10 0 60497 85500.00000 0 -6403787.477 23270624.283 8210696.726 10 0 60498 0.00000 0 -6589338.376 24084270.673 5131960.559 10 0 60498 900.00000 0 -6591089.136 24544423.038 1953332.500 10 0 60498 1800.00000 0 -6457289.123 24622961.215 -1263325.875 10 0 60498 2700.00000 0 -6241130.618 24304254.692 -4455377.192 10 0 60498 3600.00000 0 -5998252.419 23585893.709 -7560638.697 10 0 60498 4500.00000 0 -5784143.846 22478881.196 -10518605.825 10 0 60498 5400.00000 0 -5651560.746 21007276.345 -13271643.411 10 0 60498 6300.00000 0 -5648064.639 19207304.222 -15766120.026 10 0 60498 7200.00000 0 -5813790.902 17125968.674 -17953462.087 10 0 60498 8100.00000 0 -6179541.909 14819226.979 -19791106.342 10 0 60498 9000.00000 0 -6765286.996 12349803.278 -21243331.662 10 0 60498 9900.00000 0 -7579133.479 9784733.000 -22281953.735 10 0 60498 10800.00000 0 -8616812.700 7192741.595 -22886869.388 10 0 60498 11700.00000 0 -9861702.978 4641567.473 -23046440.443 10 0 60498 12600.00000 0 -11285388.477 2195341.023 -22757710.383 10 0 60498 13500.00000 0 -12848730.284 -87871.332 -22026450.487 10 0 60498 14400.00000 0 -14503404.398 -2158256.438 -20867035.459 10 0 60498 15300.00000 0 -16193841.781 -3976087.062 -19302151.843 10 0 60498 16200.00000 0 -17859488.781 -5513123.177 -17362345.705 10 0 60498 17100.00000 0 -19437293.080 -6753525.466 -15085419.007 10 0 60498 18000.00000 0 -20864310.852 -7694245.140 -12515686.990 10 0 60498 18900.00000 0 -22080326.064 -8344876.196 -9703111.358 10 0 60498 19800.00000 0 -23030372.408 -8726978.637 -6702326.418 10 0 60498 20700.00000 0 -23667052.607 -8872903.220 -3571577.257 10 0 60498 21600.00000 0 -23952558.391 -8824169.017 -371590.662 10 0 60498 22500.00000 0 -23860307.120 -8629463.470 2835599.375 10 0 60498 23400.00000 0 -23376127.018 -8342350.277 5987848.903 10 0 60498 24300.00000 0 -22498941.906 -8018782.233 9024101.126 10 0 60498 25200.00000 0 -21240927.085 -7714524.112 11885560.657 10 0 60498 26100.00000 0 -19627129.985 -7482594.070 14516822.750 10 0 60498 27000.00000 0 -17694571.241 -7370831.051 16866936.468 10 0 60498 27900.00000 0 -15490863.208 -7419690.236 18890382.063 10 0 60498 28800.00000 0 -13072402.672 -7660358.950 20547944.586 10 0 60498 29700.00000 0 -10502211.872 -8113272.119 21807467.721 10 0 60498 30600.00000 0 -7847516.198 -8787089.824 22644474.041 10 0 60498 31500.00000 0 -5177157.734 -9678180.467 23042640.177 10 0 60498 32400.00000 0 -2558950.404 -10770632.261 22994117.966 10 0 60498 33300.00000 0 -57085.033 -12036794.008 22499695.183 10 0 60498 34200.00000 0 2270309.297 -13438324.272 21568792.203 10 0 60498 35100.00000 0 4373347.332 -14927706.941 20219293.735 10 0 60498 36000.00000 0 6212223.238 -16450171.638 18477217.651 10 0 60498 36900.00000 0 7758623.640 -17945940.249 16376225.916 10 0 60498 37800.00000 0 8996659.312 -19352706.732 13956985.614 10 0 60498 38700.00000 0 9923276.513 -20608247.062 11266391.086 10 0 60498 39600.00000 0 10548130.528 -21653049.917 8356661.136 10 0 60498 40500.00000 0 10892926.572 -22432857.189 5284328.098 10 0 60498 41400.00000 0 10990255.775 -22901006.507 2109138.023 10 0 60498 42300.00000 0 10881975.542 -23020475.756 -1107116.375 10 0 60498 43200.00000 0 10617203.225 -22765541.803 -4301806.750 10 0 60498 44100.00000 0 10250008.847 -22122981.752 -7412699.532 10 0 60498 45000.00000 0 9836905.735 -21092764.439 -10379180.453 10 0 60498 45900.00000 0 9434246.763 -19688201.599 -13143447.949 10 0 60498 46800.00000 0 9095638.064 -17935551.271 -15651650.825 10 0 60498 47700.00000 0 8869481.296 -15873089.499 -17854946.798 10 0 60498 48600.00000 0 8796749.903 -13549689.076 -19710460.390 10 0 60498 49500.00000 0 8909094.582 -11022965.065 -21182120.966 10 0 60498 50400.00000 0 9227358.872 -8357065.124 -22241364.414 10 0 60498 51300.00000 0 9760567.963 -5620197.513 -22867685.009 10 0 60498 52200.00000 0 10505433.507 -2882000.343 -23049027.235 10 0 60498 53100.00000 0 11446395.107 -210862.056 -22782010.649 10 0 60498 54000.00000 0 12556196.288 2328695.375 -22071984.329 10 0 60498 54900.00000 0 13796970.226 4678462.080 -20932910.703 10 0 60498 55800.00000 0 15121788.961 6788713.850 -19387081.949 10 0 60498 56700.00000 0 16476610.475 8620024.524 -17464675.263 10 0 60498 57600.00000 0 17802541.395 10144643.470 -15203156.292 10 0 60498 58500.00000 0 19038320.023 11347382.753 -12646542.906 10 0 60498 59400.00000 0 20122915.259 12225979.259 -9844544.033 10 0 60498 60300.00000 0 20998132.401 12790918.945 -6851590.544 10 0 60498 61200.00000 0 21611116.558 13064732.848 -3725777.257 10 0 60498 62100.00000 0 21916648.955 13080796.436 -527736.657 10 0 60498 63000.00000 0 21879140.129 12881684.452 2680533.867 10 0 60498 63900.00000 0 21474236.815 12517151.754 5836868.641 10 0 60498 64800.00000 0 20689975.497 12041825.987 8880131.281 10 0 60498 65700.00000 0 19527434.493 11512709.658 11751390.539 10 0 60498 66600.00000 0 18000857.313 10986596.835 14395052.184 10 0 60498 67500.00000 0 16137241.841 10517512.932 16759925.816 10 0 60498 68400.00000 0 13975411.909 10154284.846 18800206.847 10 0 60498 69300.00000 0 11564609.087 9938343.135 20476355.533 10 0 60498 70200.00000 0 8962662.068 9901848.112 21755856.990 10 0 60498 71100.00000 0 6233808.298 10066218.384 22613848.220 10 0 60498 72000.00000 0 3446256.679 10441123.662 23033600.580 10 0 60498 72900.00000 0 669590.760 11023984.608 23006848.597 10 0 60498 73800.00000 0 -2027881.542 11800001.614 22533958.614 10 0 60498 74700.00000 0 -4581723.262 12742712.590 21623933.486 10 0 60498 75600.00000 0 -6933802.301 13815057.958 20294252.337 10 0 60498 76500.00000 0 -9034463.765 14970909.879 18570547.244 10 0 60498 77400.00000 0 -10844350.937 16157003.203 16486121.725 10 0 60498 78300.00000 0 -12335799.239 17315188.456 14081318.864 10 0 60498 79200.00000 0 -13493744.959 18384913.234 11402749.937 10 0 60498 80100.00000 0 -14316110.469 19305828.068 8502397.364 10 0 60498 81000.00000 0 -14813649.545 20020406.965 5436608.601 10 0 60498 81900.00000 0 -15009259.062 20476471.470 2265000.170 10 0 60498 82800.00000 0 -14936786.079 20629510.601 -950706.692 10 0 60498 83700.00000 0 -14639380.936 20444697.152 -4147895.523 10 0 60498 84600.00000 0 -14167466.559 19898513.445 -7264284.735 10 0 60498 85500.00000 0 -13576410.865 18979916.069 -10239153.045 99